Regional Weather Roundup
Issued by NWS

Home | Current Version | Previous Version | Text Only | Print | Product List | Glossary On
Versions: 1 2 3 4 5 6 7 8 9 10 11 12 13 14 15 16 17 18 19 20 21 22 23 24 25 26 27 28 29 30 31 32 33 34 35 36 37 38 39 40 41 42 43 44 45 46 47 48 49 50
235
ASUS43 KTOP 230408
RWRKS

WEATHER ROUNDUP FOR KANSAS
NATIONAL WEATHER SERVICE GOODLAND KS
1100 PM CDT FRI SEP 22 2017

NOTE:  "FAIR" INDICATES FEW OR NO CLOUDS BELOW 12,000 FEET WITH NO
SIGNIFICANT WEATHER AND/OR OBSTRUCTIONS TO VISIBILITY.

KSZ001>006-013>018-027>032-041>047-230500-
NORTHWEST KANSAS

CITY           SKY/WX    TMP DP  RH WIND       PRES   REMARKS
GOODLAND       PTCLDY    77  58  51 S21       29.81R
HAYS           CLOUDY    81  64  56 S16       29.85R
HILL CITY      CLEAR     82  62  50 S16G26    29.83S
RUSSELL        CLOUDY    80  64  58 S20       29.84R
$$

KSZ061>065-074>080-084>089-230500-
SOUTHWEST KANSAS

CITY           SKY/WX    TMP DP  RH WIND       PRES   REMARKS
DODGE CITY     CLOUDY    78  64  61 S24G32    29.89R
ELKHART          N/A    N/A N/A N/A MISG        N/A
GARDEN CITY    MOCLDY    77  63  61 S20G28    29.86R
GREAT BEND     CLOUDY    79  65  62 S16G25    29.88R
LIBERAL        CLEAR     76  65  68 S20G26    29.87S
PRATT          CLOUDY    78  64  62 S15G22    29.89F
$$

KSZ066>073-081>083-090>101-230500-
SOUTHEAST KANSAS

CITY           SKY/WX    TMP DP  RH WIND       PRES   REMARKS
CHANUTE        CLEAR     74  68  81 SE6       29.96R
COFFEYVILLE    CLEAR     71  67  87 CALM      29.95R
HUTCHINSON     PTCLDY    79  68  69 S18G24    29.90S
MEDICINE LODGE   N/A     78  65  63 SE8       29.90R
NEWTON         CLEAR     77  67  71 S15       29.93S
PARSONS        CLEAR     72  67  84 CALM      29.97R
WICHITA INTL   CLEAR     77  69  76 SE14G22   29.91F
WICHITA JABRA  CLEAR     77  69  76 S12       29.92S
WICHITA MCCONL CLEAR     77  67  69 S14       29.93S
WINFIELD       CLEAR     76  69  79 SE9       29.95R
$$

KSZ007>012-019>026-033>040-048>060-102>105-230500-
NORTHEAST KANSAS

CITY           SKY/WX    TMP DP  RH WIND       PRES   REMARKS
CONCORDIA      CLEAR     78  68  71 S15       29.88R
EMPORIA        CLEAR     75  66  73 S9        29.94R
LAWRENCE       CLEAR     73  70  90 E5        29.95R
MANHATTAN      CLEAR     77  68  73 S9        29.91R
MARYSVILLE     CLEAR     79  68  69 S10G17    29.92R
OLATHE IND     CLEAR     74  68  81 SE6       29.97R
OLATHE EXE     CLEAR     73  69  87 S7        29.97R
SALINA         CLOUDY    82  68  62 SE15      29.89R
TOPEKA BILLARD CLEAR     76  70  82 SE7       29.94R
TOPEKA FORBES  CLEAR     78  70  76 SE10      29.95R
$$




USA.gov is the U.S. government's official web portal to all federal, state and local government web resources and services.